• In Austria
  • List of Countries
  • For 7 days
  • Water Temperature
  • Satellite Maps
  • Weather Map
  • News
  • Weather Widgets
  • user-avatar
    Login

    Hourly Weather Tanger

    Today, 20 January, Saturday

    Time Temperature Precipitation Wind Pressure Humidity
    00:00 +12°C° 0 mm 2 mps 768 mmHg 88%
    01:00 +12°C° 0 mm 2 mps 768 mmHg 88%
    02:00 +11°C° 0 mm 3 mps 768 mmHg 88%
    03:00 +11°C° 0 mm 3 mps 768 mmHg 87%
    04:00 +11°C° 0 mm 3 mps 768 mmHg 87%
    05:00 +10°C° 0 mm 3 mps 768 mmHg 87%
    06:00 +10°C° 0 mm 3 mps 768 mmHg 88%
    07:00 +11°C° 0 mm 3 mps 769 mmHg 86%
    08:00 +12°C° 0 mm 3 mps 769 mmHg 84%
    09:00 +12°C° 0 mm 3 mps 769 mmHg 82%
    10:00 +14°C° 0 mm 3 mps 770 mmHg 77%
    11:00 +16°C° 0 mm 3 mps 770 mmHg 72%
    12:00 +17°C° 0 mm 4 mps 770 mmHg 71%
    13:00 +18°C° 0 mm 3 mps 770 mmHg 70%
    14:00 +18°C° 0 mm 3 mps 770 mmHg 68%
    15:00 +18°C° 0 mm 3 mps 770 mmHg 66%
    16:00 +17°C° 0 mm 3 mps 770 mmHg 73%
    17:00 +14°C° 0 mm 3 mps 770 mmHg 79%
    18:00 +14°C° 0 mm 2 mps 770 mmHg 86%
    19:00 +14°C° 0 mm 2 mps 770 mmHg 86%
    20:00 +13°C° 0 mm 2 mps 770 mmHg 85%
    21:00 +13°C° 0 mm 2 mps 771 mmHg 85%
    22:00 +12°C° 0 mm 2 mps 771 mmHg 84%
    23:00 +11°C° 0 mm 3 mps 771 mmHg 83%

    Tomorrow, 21 January, Sunday

    Time Temperature Precipitation Wind Pressure Humidity
    00:00 +11°C° 0 mm 3 mps 771 mmHg 82%
    01:00 +11°C° 0 mm 3 mps 771 mmHg 80%
    02:00 +11°C° 0 mm 3 mps 771 mmHg 79%
    03:00 +11°C° 0 mm 3 mps 771 mmHg 78%
    04:00 +10°C° 0 mm 3 mps 771 mmHg 78%
    05:00 +10°C° 0 mm 4 mps 771 mmHg 78%
    06:00 +10°C° 0 mm 4 mps 771 mmHg 78%
    07:00 +11°C° 0 mm 4 mps 771 mmHg 77%
    08:00 +11°C° 0 mm 4 mps 771 mmHg 77%
    09:00 +12°C° 0 mm 3 mps 771 mmHg 76%
    10:00 +13°C° 0 mm 3 mps 771 mmHg 73%
    11:00 +16°C° 0 mm 3 mps 771 mmHg 70%
    12:00 +17°C° 0 mm 3 mps 771 mmHg 67%
    13:00 +18°C° 0 mm 3 mps 771 mmHg 68%
    14:00 +18°C° 0 mm 3 mps 770 mmHg 68%
    15:00 +18°C° 0 mm 4 mps 770 mmHg 68%
    16:00 +17°C° 0 mm 3 mps 770 mmHg 75%
    17:00 +14°C° 0 mm 3 mps 770 mmHg 81%
    18:00 +13°C° 0 mm 3 mps 770 mmHg 87%
    19:00 +12°C° 0 mm 3 mps 770 mmHg 87%
    20:00 +13°C° 0 mm 2 mps 770 mmHg 88%
    21:00 +13°C° 0 mm 2 mps 771 mmHg 88%
    22:00 +12°C° 0 mm 2 mps 771 mmHg 88%
    23:00 +12°C° 0 mm 2 mps 770 mmHg 87%

    Day after tomorrow, 22 January, Monday

    Time Temperature Precipitation Wind Pressure Humidity
    00:00 +12°C° 0 mm 2 mps 770 mmHg 87%
    01:00 +12°C° 0 mm 2 mps 770 mmHg 86%
    02:00 +12°C° 0 mm 2 mps 770 mmHg 86%
    03:00 +12°C° 0 mm 2 mps 770 mmHg 85%
    04:00 +12°C° 0 mm 2 mps 770 mmHg 85%
    05:00 +10°C° 0 mm 2 mps 770 mmHg 84%
    06:00 +10°C° 0 mm 2 mps 770 mmHg 84%
    07:00 +12°C° 0 mm 2 mps 770 mmHg 81%
    08:00 +13°C° 0 mm 2 mps 770 mmHg 79%
    09:00 +14°C° 0 mm 2 mps 770 mmHg 77%
    10:00 +15°C° 0 mm 2 mps 770 mmHg 73%
    11:00 +17°C° 0 mm 2 mps 770 mmHg 70%
    12:00 +18°C° 0 mm 2 mps 770 mmHg 66%
    13:00 +18°C° 0 mm 2 mps 769 mmHg 67%
    14:00 +19°C° 0 mm 2 mps 769 mmHg 68%
    15:00 +19°C° 0 mm 2 mps 768 mmHg 69%
    16:00 +17°C° 0 mm 2 mps 768 mmHg 76%
    17:00 +16°C° 0 mm 2 mps 768 mmHg 82%
    18:00 +14°C° 0 mm 2 mps 768 mmHg 89%
    19:00 +14°C° 0 mm 2 mps 769 mmHg 89%
    20:00 +14°C° 0 mm 2 mps 769 mmHg 89%
    21:00 +13°C° 0 mm 2 mps 769 mmHg 89%
    22:00 +13°C° 0 mm 2 mps 769 mmHg 88%
    23:00 +13°C° 0 mm 1 mps 769 mmHg 87%

    23 January, Tuesday

    Time Temperature Precipitation Wind Pressure Humidity
    00:00 +13°C° 0 mm 1 mps 769 mmHg 86%
    01:00 +13°C° 0 mm 1 mps 769 mmHg 85%
    02:00 +13°C° 0 mm 1 mps 768 mmHg 85%
    03:00 +12°C° 0 mm 1 mps 768 mmHg 84%
    04:00 +12°C° 0 mm 1 mps 768 mmHg 84%
    05:00 +12°C° 0 mm 1 mps 768 mmHg 83%
    06:00 +12°C° 0 mm 1 mps 768 mmHg 83%
    07:00 +13°C° 0 mm 2 mps 768 mmHg 80%
    08:00 +14°C° 0 mm 2 mps 769 mmHg 77%
    09:00 +14°C° 0 mm 2 mps 769 mmHg 75%
    10:00 +16°C° 0 mm 2 mps 769 mmHg 70%
    11:00 +18°C° 0 mm 2 mps 769 mmHg 66%
    12:00 +19°C° 0 mm 2 mps 769 mmHg 62%
    13:00 +19°C° 0 mm 2 mps 768 mmHg 63%
    14:00 +19°C° 0 mm 2 mps 768 mmHg 64%
    15:00 +20°C° 0 mm 2 mps 767 mmHg 65%
    16:00 +18°C° 0 mm 2 mps 767 mmHg 72%
    17:00 +16°C° 0 mm 2 mps 767 mmHg 79%
    18:00 +15°C° 0 mm 2 mps 768 mmHg 86%
    19:00 +14°C° 0 mm 1 mps 768 mmHg 86%
    20:00 +14°C° 0 mm 1 mps 768 mmHg 86%
    21:00 +14°C° 0 mm 1 mps 769 mmHg 86%
    22:00 +14°C° 0 mm 1 mps 768 mmHg 85%
    23:00 +13°C° 0 mm 1 mps 768 mmHg 84%

    24 January, Wednesday

    Time Temperature Precipitation Wind Pressure Humidity
    00:00 +13°C° 0 mm 1 mps 768 mmHg 83%
    01:00 +13°C° 0 mm 1 mps 768 mmHg 82%
    02:00 +13°C° 0 mm 1 mps 768 mmHg 81%
    03:00 +13°C° 0 mm 1 mps 768 mmHg 79%
    04:00 +13°C° 0 mm 1 mps 767 mmHg 78%
    05:00 +13°C° 0 mm 1 mps 767 mmHg 77%
    06:00 +12°C° 0 mm 2 mps 767 mmHg 76%
    07:00 +13°C° 0 mm 2 mps 768 mmHg 74%
    08:00 +14°C° 0 mm 2 mps 768 mmHg 72%
    09:00 +15°C° 0 mm 2 mps 768 mmHg 69%
    10:00 +16°C° 0 mm 2 mps 768 mmHg 65%
    11:00 +18°C° 0 mm 2 mps 768 mmHg 61%
    12:00 +20°C° 0 mm 2 mps 768 mmHg 56%
    13:00 +20°C° 0 mm 2 mps 767 mmHg 56%
    14:00 +20°C° 0 mm 2 mps 767 mmHg 57%
    15:00 +20°C° 0 mm 2 mps 766 mmHg 57%
    16:00 +18°C° 0 mm 2 mps 766 mmHg 64%
    17:00 +17°C° 0 mm 2 mps 766 mmHg 71%
    18:00 +15°C° 0 mm 2 mps 767 mmHg 79%
    19:00 +15°C° 0 mm 2 mps 767 mmHg 79%
    20:00 +14°C° 0 mm 2 mps 767 mmHg 80%
    21:00 +14°C° 0 mm 2 mps 767 mmHg 80%
    22:00 +14°C° 0 mm 1 mps 767 mmHg 80%
    23:00 +14°C° 0 mm 1 mps 767 mmHg 79%

    25 January, Thursday

    Time Temperature Precipitation Wind Pressure Humidity
    00:00 +14°C° 0 mm 1 mps 767 mmHg 78%
    01:00 +13°C° 0 mm 1 mps 766 mmHg 78%
    02:00 +13°C° 0 mm 1 mps 766 mmHg 78%
    03:00 +13°C° 0 mm 1 mps 766 mmHg 78%
    04:00 +13°C° 0 mm 1 mps 766 mmHg 79%
    05:00 +12°C° 0 mm 1 mps 766 mmHg 79%
    06:00 +12°C° 0 mm 1 mps 766 mmHg 80%
    07:00 +13°C° 0 mm 1 mps 766 mmHg 78%
    08:00 +14°C° 0 mm 2 mps 767 mmHg 76%
    09:00 +14°C° 0 mm 2 mps 767 mmHg 74%
    10:00 +16°C° 0 mm 2 mps 767 mmHg 70%
    11:00 +17°C° 0 mm 3 mps 767 mmHg 66%
    12:00 +18°C° 0 mm 3 mps 767 mmHg 61%
    13:00 +18°C° 0 mm 4 mps 766 mmHg 63%
    14:00 +18°C° 0 mm 4 mps 766 mmHg 64%
    15:00 +17°C° 0 mm 5 mps 765 mmHg 66%
    16:00 +17°C° 0 mm 4 mps 765 mmHg 73%
    17:00 +14°C° 0 mm 4 mps 765 mmHg 80%
    18:00 +13°C° 0 mm 4 mps 765 mmHg 88%
    19:00 +13°C° 0.4 mm 5 mps 766 mmHg 89%
    20:00 +11°C° 0.4 mm 6 mps 766 mmHg 89%
    21:00 +11°C° 0.4 mm 6 mps 767 mmHg 90%
    22:00 +11°C° 0.2 mm 7 mps 767 mmHg 87%
    23:00 +11°C° 0.2 mm 7 mps 767 mmHg 84%
    Show more